FW8585 Weather Reports


Display with metric or nautical units.
time (UTC)temp
F
wind
direction
speed
MPH
gust
MPH
rain 1hr
in
rain 24hr
in
rain mn
in
humidity
%
barometer
mb
20260505123912 73 219 3.0 7.0 0.00 0.00 0.00 85 1006.7
20260505123813 73 224 3.0 6.0 0.00 0.00 0.00 85 1006.8
20260505122812 73 228 4.0 6.0 0.00 0.00 0.00 85 1006.8
20260505121812 73 224 4.0 7.0 0.00 0.00 0.00 86 1006.7
20260505121731 73 223 7.0 8.0 0.00 0.00 0.00 86 1006.8
20260505120815 73 236 2.0 4.0 0.00 0.00 0.00 86 1006.6
20260505115813 73 225 4.0 10.0 0.00 0.00 0.00 86 1006.4
20260505114815 73 229 4.0 7.0 0.00 0.00 0.00 86 1006.3
20260505114713 73 228 3.0 6.0 0.00 0.00 0.00 86 1006.4
20260505113714 73 224 5.0 8.0 0.00 0.00 0.00 86 1006.6
20260505112714 72 225 4.0 9.0 0.00 0.00 0.00 86 1006.6
20260505110712 72 235 4.0 6.0 0.00 0.00 0.00 86 1006.3
20260505110612 72 236 4.0 8.0 0.00 0.00 0.00 86 1006.4
20260505101511 72 225 2.0 3.0 0.00 0.00 0.00 86 1006.5
20260505100513 72 247 2.0 5.0 0.00 0.00 0.00 86 1006.7
20260505095611 72 226 3.0 6.0 0.00 0.00 0.00 86 1006.7
20260505093712 71 224 3.0 6.0 0.00 0.00 0.00 86 1006.6
20260505092728 71 226 4.0 6.0 0.00 0.00 0.00 86 1006.8
20260505091812 71 249 4.0 5.0 0.00 0.00 0.00 86 1006.8
20260505091713 71 244 4.0 7.0 0.00 0.00 0.00 86 1006.9
20260505090712 71 225 2.0 3.0 0.00 0.00 0.00 85 1006.9
20260505090613 71 225 4.0 6.0 0.00 0.00 0.00 85 1006.9
20260505085613 71 223 4.0 6.0 0.00 0.00 0.00 85 1006.8
20260505085513 71 231 3.0 5.0 0.00 0.00 0.00 85 1006.7
20260505083512 71 241 5.0 8.0 0.00 0.00 0.00 84 1006.8
20260505082611 71 225 4.0 7.0 0.00 0.00 0.00 84 1007.0
20260505082514 71 225 2.0 4.0 0.00 0.00 0.00 84 1007.2
20260505081512 71 241 4.0 5.0 0.00 0.00 0.00 84 1007.0
20260505081413 71 227 5.0 8.0 0.00 0.00 0.00 84 1007.0
20260505080413 71 233 5.0 9.0 0.00 0.00 0.00 83 1007.2
20260505075512 71 226 5.0 8.0 0.00 0.00 0.00 83 1007.3
20260505074513 71 236 4.0 5.0 0.00 0.00 0.00 83 1007.3
20260505074414 71 233 4.0 7.0 0.00 0.00 0.00 83 1007.3
20260505071513 71 238 3.0 7.0 0.00 0.00 0.00 82 1007.6
20260505070513 71 231 2.0 5.0 0.00 0.00 0.00 82 1007.7
20260505065514 71 231 4.0 7.0 0.00 0.00 0.00 82 1007.8
20260505064612 71 225 3.0 5.0 0.00 0.00 0.00 82 1007.6
20260505064514 71 225 2.0 4.0 0.00 0.00 0.00 81 1007.7
20260505063612 71 217 5.0 6.0 0.00 0.00 0.00 81 1007.9
20260505061611 71 225 3.0 4.0 0.00 0.00 0.00 81 1008.2
20260505060613 71 225 1.0 3.0 0.00 0.00 0.00 80 1008.2
20260505060514 71 207 2.0 4.0 0.00 0.00 0.00 80 1008.3
20260505055611 71 215 3.0 4.0 0.00 0.00 0.00 80 1008.2
20260505054612 71 233 2.0 5.0 0.00 0.00 0.00 79 1008.3
20260505053711 71 228 4.0 5.0 0.00 0.00 0.00 79 1008.4
20260505052713 71 225 4.0 6.0 0.00 0.00 0.00 78 1008.5
20260505051810 71 204 3.0 5.0 0.00 0.00 0.00 78 1008.7
20260505051711 71 222 4.0 6.0 0.00 0.00 0.00 78 1008.7
20260505040331 73 235 7.0 12.0 0.00 0.00 0.00 74 1008.7
20260505035416 73 219 7.0 14.0 0.00 0.00 0.00 74 1008.8
20260505034415 73 224 7.0 12.0 0.00 0.00 0.00 74 1008.6
20260505033415 73 215 3.0 5.0 0.00 0.00 0.00 74 1009.0
20260505032417 73 228 6.0 11.0 0.00 0.00 0.00 73 1008.8
20260505030416 73 221 4.0 7.0 0.00 0.00 0.00 73 1008.9
20260505024518 74 223 7.0 13.0 0.00 0.00 0.00 72 1008.7
20260505024415 74 236 6.0 12.0 0.00 0.00 0.00 72 1008.7
20260505023417 74 217 6.0 8.0 0.00 0.00 0.00 72 1008.8
20260505023316 74 210 5.0 7.0 0.00 0.00 0.00 72 1008.7
20260505022316 74 214 5.0 9.0 0.00 0.00 0.00 72 1008.8
20260505022216 74 215 3.0 6.0 0.00 0.00 0.00 71 1008.8
20260505021216 74 195 3.0 6.0 0.00 0.00 0.00 71 1008.6
20260505020216 74 220 8.0 13.0 0.00 0.00 0.00 71 1008.5
20260505015215 74 211 9.0 13.0 0.00 0.00 0.00 71 1008.4
20260505014117 74 203 4.0 9.0 0.00 0.00 0.00 71 1008.2
20260505013017 74 229 5.0 8.0 0.00 0.00 0.00 71 1008.2
20260505012017 74 212 4.0 7.0 0.00 0.00 0.00 70 1008.1
20260505011017 75 199 5.0 7.0 0.00 0.00 0.00 69 1008.2
20260505010014 75 222 5.0 7.0 0.00 0.00 0.00 68 1008.1
20260505005015 76 204 6.0 8.0 0.00 0.00 0.00 67 1008.1
20260505004015 76 193 7.0 12.0 0.00 0.00 0.00 67 1007.9
20260505003015 76 195 7.0 10.0 0.00 0.00 0.00 67 1008.0
20260505002015 76 222 5.0 7.0 0.00 0.00 0.00 66 1008.0
20260505001016 76 202 7.0 12.0 0.00 0.00 0.00 66 1008.0
20260505000035 77 201 7.0 14.0 0.00 0.00 0.00 65 1008.2
20260504234114 77 196 9.0 13.0 0.00 0.00 0.00 63 1008.1
20260504233133 78 189 9.0 13.0 0.00 0.00 0.00 62 1008.1
20260504233017 78 207 10.0 15.0 0.00 0.00 0.00 62 1008.2
20260504232016 78 214 9.0 16.0 0.00 0.00 0.00 61 1008.2
20260504231114 79 183 5.0 13.0 0.00 0.00 0.00 61 1008.4
20260504230115 79 171 5.0 10.0 0.00 0.00 0.00 59 1008.4
20260504225116 80 200 9.0 13.0 0.00 0.00 0.00 56 1008.4
20260504225016 80 199 8.0 12.0 0.00 0.00 0.00 56 1008.2
20260504224014 80 194 8.0 14.0 0.00 0.00 0.00 55 1008.5
20260504223016 80 206 7.0 11.0 0.00 0.00 0.00 55 1008.6
20260504222917 80 223 5.0 8.0 0.00 0.00 0.00 55 1008.6
20260504222015 80 198 6.0 10.0 0.00 0.00 0.00 54 1008.8
20260504221916 80 186 6.0 10.0 0.00 0.00 0.00 53 1008.8
20260504221815 80 226 6.0 12.0 0.00 0.00 0.00 53 1008.8
20260504220914 81 226 7.0 11.0 0.00 0.00 0.00 53 1008.9
20260504215914 81 237 5.0 9.0 0.00 0.00 0.00 52 1008.7
20260504214915 81 232 5.0 9.0 0.00 0.00 0.00 51 1009.0
20260504213916 81 265 5.0 11.0 0.00 0.00 0.00 50 1009.0
20260504212915 82 232 6.0 10.0 0.00 0.00 0.00 50 1009.0
20260504211916 81 235 6.0 12.0 0.00 0.00 0.00 50 1009.2
20260504211014 82 252 7.0 10.0 0.00 0.00 0.00 49 1009.4
20260504210017 82 221 3.0 6.0 0.00 0.00 0.00 49 1009.5
20260504205114 81 226 5.0 9.0 0.00 0.00 0.00 50 1009.8
20260504205017 82 245 6.0 9.0 0.00 0.00 0.00 50 1009.8
20260504204114 82 195 7.0 11.0 0.00 0.00 0.00 49 1009.9
20260504203115 82 232 3.0 6.0 0.00 0.00 0.00 49 1009.9
20260504202214 81 234 4.0 6.0 0.00 0.00 0.00 49 1010.2
20260504200217 81 241 5.0 7.0 0.00 0.00 0.00 49 1010.4
20260504195314 81 240 3.0 8.0 0.00 0.00 0.00 50 1010.7
20260504195216 81 233 5.0 7.0 0.00 0.00 0.00 50 1010.7
20260504194216 80 222 3.0 5.0 0.00 0.00 0.00 49 1010.8
20260504193315 81 199 4.0 8.0 0.00 0.00 0.00 49 1011.0
20260504192316 80 219 4.0 6.0 0.00 0.00 0.00 50 1011.0
20260504191416 80 242 6.0 11.0 0.00 0.00 0.00 50 1011.3
20260504190515 80 216 5.0 9.0 0.00 0.00 0.00 50 1011.4
20260504185515 80 229 7.0 12.0 0.00 0.00 0.00 49 1011.6
20260504184614 80 240 6.0 9.0 0.00 0.00 0.00 50 1011.5
20260504183616 80 192 5.0 8.0 0.00 0.00 0.00 51 1011.6
20260504181617 79 200 7.0 12.0 0.00 0.00 0.00 51 1011.8
20260504181515 79 192 7.0 13.0 0.00 0.00 0.00 51 1011.9
20260504175615 78 264 8.0 11.0 0.00 0.00 0.00 50 1012.2
20260504175517 78 249 6.0 13.0 0.00 0.00 0.00 50 1012.1
20260504174614 78 244 9.0 16.0 0.00 0.00 0.00 50 1012.1
20260504173615 78 261 6.0 9.0 0.00 0.00 0.00 52 1012.4
20260504172632 78 250 7.0 12.0 0.00 0.00 0.00 52 1012.6
20260504171715 78 222 6.0 11.0 0.00 0.00 0.00 52 1012.7
20260504171615 78 188 5.0 8.0 0.00 0.00 0.00 52 1012.7